Skip Page Navigation
NASA JPL Caltech
NASA Logo - Jet Propulsion Laboratory + View the NASA Portal
+ Near-Earth Object (NEO) Program
Search JPL
JPL Home Earth Solar System Stars & Galaxies Technology
JPL Solar System Dynamics
BODIES ORBITS EPHEMERIDES TOOLS PHYSICAL DATA DISCOVERY FAQ SITE MAP
JPL Small-Body Database Browser
Search: [ help ]  
79254 Tsuda (1994 YJ)
Classification: Main-belt Asteroid          SPK-ID: 2079254
Ephemeris | Orbit Diagram | Orbital Elements | Physical Parameters | Discovery Circumstances ]

[ show orbit diagram ]
Orbital Elements at Epoch 2456400.5 (2013-Apr-18.0) TDB
Reference: MPO244793 (heliocentric ecliptic J2000)
 Element Value Uncertainty (1-sigma)   Units 
e 0.1050101 n/a  
a 2.4878792 n/a AU
q 2.2266268 n/a AU
i 2.63044 n/a deg
node 92.43823 n/a deg
peri 269.81439 n/a deg
M 293.15102 n/a deg
tp 2456666.6550095
(2014-Jan-09.15500950)
n/a JED
period 1433.3173585
3.92
n/a
n/a
d
yr
n 0.25116559 n/a deg/d
Q 2.7491316 n/a AU
  Orbit Determination Parameters
   # obs. used (total)      448  
   first obs. used      1990-??-??  
   last obs. used      2012-06-08  
   # oppositions      12  
   planetary ephem.      DE403  
   condition code      0  
   fit RMS      0.57  
   data source      MPC:mpn  
   producer      MPCLINUX  

Additional Information
 T_jup = 3.465 

Ephemeris | Orbit Diagram | Orbital Elements | Physical Parameters | Discovery Circumstances ]

Physical Parameter Table
Parameter Symbol Value Units Sigma Reference Notes
absolute magnitude H 15.1 mag n/a MPO244793  

79254 Tsuda           Discovered 1994 Dec. 23 by A. Nakamura at Kuma Kogen.
Tsunemi Tsuda (1960-1993), born in Yamaguchi prefecture, was a baseball player for the Hiroshima Toyo Carp from 1982 to 1991. Known as the "Blazing Closer", he is credited with 49 wins and 90 saves. He won the Most Valuable Player Award in the Japan Series championship in 1986.
NOTE: some special characters may not display properly (any characters within {} are an attempt to place the proper accent above a character)
Reference: 20070601/MPCPages.arcLast Updated: 2007-06-06

Alternate Designations
 1994 YJ = 1998 WE33 = 2000 EY127 
Ephemeris | Orbit Diagram | Orbital Elements | Physical Parameters | Discovery Circumstances ]
ABOUT SSD CREDITS/AWARDS PRIVACY/COPYRIGHT GLOSSARY LINKS
FirstGov 2013-May-22 21:25 UT
(server date/time)  
NASA Home Page
Site Manager:   Donald K. Yeomans
Webmaster  Alan B. Chamberlin